loading
|

OBJECT C, 61240

Orbit data source: Space-Track

OBJECT C, 61240 is a satellite owned by Changguang WJ (CN) in SSO that was launched on Tue, 24 Sep 2024 UTC via a LIJIAN-1 launch vehicle from the Jiuquan Satellite Launch Center, China (JSC). Unknown objects in Earth's orbit typically refer to objects detected orbiting the Earth but have not yet been identified or cataloged. These objects could be anything from previously untracked satellites, spent rocket stages, debris from satellite collisions, or even natural meteoroids temporarily captured by Earth's gravity.

Loading next visibility...
Next conjunction unknown
Loading greatness...
OBJECT C details
Identifier
61240, 2024-174C
Orbit
SSO
Last TLE update11 hours ago
Origin
Flag of CNChangguang WJ (CN / PRC)
ManufacturerChangguang WJ
MissionOperational spacecraft
Bus & MotorJL-1, Unknown motor
Mass~250 kg wet, ~250 kg dry
Launch date (UTC)
2024-09-24 (3 weeks ago)
Launch vehicle
LIJIAN-1
Launch site
Jiuquan Satellite Launch Center, China (JSC)
Object typeUnknown
Shape & HBRUnknown
Radar Cross SectionMedium (>0.1 m² and <1 m²)

Expand to show TLE details & history

TLE from 11 hours ago
0 OBJECT C
1 61240U 24174C   24288.16567801  .00009595  00000-0  49715-3 0  9996
2 61240  97.4508 293.1056 0014212 207.1656 152.8835 15.16307959  2876
Epoch: 2024-10-14T03:58Z
Definitive object data (Epoch: 2024-10-14T03:58:34.58Z)
Latitude0.00001°
Longitude-149.73521°
Altitude528.822 km
Speed7.594 km/s
True Right ascension19h 32m 25s
True Declination0° 00' 00"
Sunlit
Object was in daylight at TLE epoch
Predictive object data (real-time)
Latitude-68.11936°
Longitude-130.39781°
Altitude541.827 km
Speed7.591 km/s
Apparent Right ascension21h 09m 15s
Apparent Declination-54° 29' 31"
Sunlit
Object is in daylight
Predictive observer data (real-time)
Local Sidereal Time09:19:32
Azimuth174.102° S
Elevation-75.323°
Doppler factor1
Orbital elements
Apogee523.778 km
Perigee504.188 km
Semi-major axis6,892.12 km
Eccentricity0.0014212
Inclination97.4508°
RAAN293.1056°
Arg. of periapsis207.1656°
True anomaly152.95761°
Mean anomaly152.8835°
Eccentric anomaly152.92057°
Mean motion3.79327 °/min
BSTAR0.00049715
Period94.9 mins
No data available
No data available

OBJECT C Visibility forecast

Observer location: 39.9160978°, -105.1181434

Span
Click to sort rows by Start time (UTC) header in descending order
Start Az.
Max El. time (UTC)
Max El. Az.
Max El.
End time (UTC)
End Az.
6 mins2024-10-15 00:41:27.024Z177.189° S2024-10-15 00:44:27.024Z255.55° W42.749°2024-10-15 00:47:27.024Z340.564° N
5 mins2024-10-15 13:48:27.024Z347.587° N2024-10-15 13:50:27.024Z298.561° NW32.537°2024-10-15 13:53:27.024Z221.345° SW